Lid_Strength_Index
2 3 3 3 3 4 4 5 5 5 6 6 6 6 7 7 7 8 8 7 11 13 12 11 11 12 11 11 12 9 10 9 9 11 10 10 11 10 11 9 11 14 14 15 14 16 16 6 7 12 8 6 6 6
3 3 3 3 3 4 4 5 5 5 5 6 5 6 7 7 7 7 9 7 8 12 12 9 9 9 9 9 10 8 9 10 8 8 8 9 11 10 11 14 7 13 9 12 11 11 6 5 7 6 5 7 7 6
2 2 2 3 3 4 5 4 4 5 5 6 5 5 6 7 7 7 8 8 9 12 12 10 10 8 7 7 6 10 7 7 6 4 7 8 11 8 12 12 10 8 7 10 10 8 7 6 5 4 4 5 4 4
2 2 2 2 3 3 4 3 3 4 5 5 6 5 6 7 7 6 8 7 9 12 15 11 8 9 7 6 6 6 6 5 4 5 8 9 10 7 9 9 10 8 8 10 9 7 8 6 5 5 5 5 4 5
2 2 2 2 2 3 3 3 4 4 5 5 6 5 6 6 6 6 7 7 8 12 13 12 9 7 6 6 6 6 6 6 8 8 9 10 7 8 7 8 9 9 10 12 12 10 10 9 7 5 6 5 6 6
3 2 2 2 2 2 3 3 4 4 5 5 5 5 6 7 7 8 11 8 7 8 12 14 8 8 6 6 6 6 7 7 8 8 9 7 6 8 11 11 9 8 7 9 11 9 9 6 5 4 6 6 7 8
2 2 2 2 2 2 3 4 5 4 5 6 5 6 7 7 7 10 11 8 7 8 12 14 11 8 7 6 6 7 6 7 8 8 8 8 8 8 10 12 9 8 9 9 8 7 9 6 6 5 7 8 8 9
2 2 2 2 2 2 3 4 4 5 5 6 6 7 8 7 7 9 7 7 7 10 11 15 12 10 7 8 9 5 7 7 7 8 8 9 8 8 11 9 9 9 10 9 9 8 7 6 6 8 8 9 10 10
2 2 2 2 2 2 4 4 4 5 6 6 7 8 7 8 10 8 6 6 7 9 13 13 13 12 7 8 8 7 5 9 7 9 10 7 8 11 11 11 11 10 11 11 9 8 8 8 10 10 10 10 10 11
3 2 2 2 2 3 4 5 5 6 6 7 8 10 11 8 6 5 8 11 12 11 11 12 9 11 9 10 9 8 5 8 11 9 9 9 10 9 10 9 10 9 9 9 10 10 9 10 11 10 10 10 11 11
2 2 2 2 3 4 5 5 5 6 8 10 11 10 9 7 8 9 12 12 13 13 10 10 9 11 7 11 10 8 8 9 13 11 11 11 11 10 8 9 9 9 8 8 8 7 8 9 11 11 11 11 11 11
2 2 2 3 3 5 5 5 6 8 9 10 9 8 8 10 11 14 14 12 12 13 9 10 9 8 8 7 9 7 9 9 14 8 11 12 10 9 8 9 9 9 9 8 8 8 8 9 9 10 11 11 11 11
3 3 3 3 4 5 5 5 7 8 8 8 9 11 12 12 15 15 16 14 13 10 9 9 10 8 8 7 9 8 11 11 8 11 12 11 9 9 9 9 9 9 9 8 8 8 8 9 10 9 11 12 12 11
3 3 4 4 5 5 5 6 7 7 8 11 12 15 14 14 13 12 12 12 10 9 9 9 9 9 8 9 9 11 8 9 12 12 12 9 11 9 9 9 9 10 9 9 9 8 9 9 10 10 11 11 11 12
3 4 4 5 5 5 6 6 7 7 9 11 11 15 14 11 9 10 10 11 9 7 8 9 8 7 10 11 9 10 12 14 13 12 11 10 11 10 9 8 9 9 9 9 9 8 9 9 10 10 10 11 11 12
4 5 6 5 5 6 6 7 8 9 10 11 11 13 11 11 12 11 11 10 8 7 7 8 9 11 13 11 14 16 13 14 11 11 11 10 10 9 9 8 8 8 8 9 7 8 8 8 9 10 10 11 12 12
6 7 5 6 6 6 8 9 10 12 11 12 12 10 10 10 11 10 9 9 6 8 10 9 13 17 10 12 15 11 12 10 10 10 10 10 9 9 8 8 8 8 9 9 7 7 8 8 8 10 11 12 12 13
7 6 5 6 7 8 9 9 11 11 13 11 12 11 10 8 10 9 8 8 8 8 9 11 9 12 13 16 12 11 9 9 7 8 9 9 8 8 7 8 8 8 9 9 8 7 7 7 8 9 10 11 12 12
7 7 6 7 7 8 11 11 10 13 12 11 10 9 8 8 8 8 8 7 7 7 9 10 12 11 11 9 10 9 9 8 9 8 8 7 7 7 7 7 7 8 9 9 9 7 7 6 8 8 9 11 12 13
6 7 7 7 7 9 12 11 9 11 12 10 9 9 9 9 8 8 9 9 9 9 11 11 10 9 9 9 9 8 8 8 7 8 8 7 8 7 7 7 8 8 9 9 9 9 7 7 6 8 9 10 12 13
8 8 7 8 9 9 9 11 11 10 10 10 9 9 10 9 10 10 10 9 10 10 11 10 10 9 8 8 7 8 9 8 8 9 10 9 8 7 7 7 8 8 9 10 11 10 9 8 7 6 8 9 10 12
8 8 9 9 10 10 10 9 10 9 10 9 9 9 10 10 10 10 9 11 10 10 9 10 9 9 10 9 9 9 9 8 7 7 9 7 7 7 7 7 9 9 9 10 11 11 9 8 7 6 6 8 9 11
7 8 9 10 11 11 12 8 12 11 12 11 9 11 10 10 9 9 10 9 9 9 9 9 8 8 8 9 9 9 10 9 8 8 8 8 7 7 7 6 8 9 9 9 9 10 10 10 8 7 5 7 8 9
7 10 11 12 11 13 10 12 10 11 10 11 11 12 11 10 9 10 11 10 10 9 9 9 8 9 9 9 9 9 9 9 8 7 8 8 8 8 7 7 6 8 9 9 9 9 9 10 9 7 6 7 7 9
12 13 12 14 11 12 13 13 12 12 13 12 12 12 11 9 11 12 11 10 10 10 9 8 8 8 9 8 9 9 9 9 9 9 9 8 8 8 8 7 6 6 7 9 10 10 10 10 10 9 7 6 7 7
14 12 13 12 12 13 13 14 13 12 12 12 11 9 9 10 12 13 10 9 9 9 8 8 8 9 8 8 9 8 9 8 8 8 9 9 9 9 9 9 8 7 7 8 9 10 9 10 11 11 10 8 11 7
15 14 11 9 10 11 12 11 10 11 12 13 11 11 11 13 13 10 9 8 8 8 7 7 7 8 8 9 9 8 8 8 8 8 8 8 8 8 9 9 9 8 7 8 8 9 10 9 10 11 11 9 6 6
11 12 13 12 11 10 12 11 12 12 11 9 10 12 12 12 11 9 9 8 7 7 7 7 6 7 8 9 9 8 8 7 7 8 8 7 7 7 8 8 7 10 7 7 8 9 9 9 10 10 11 12 9 5
12 11 11 12 12 11 11 11 11 10 8 9 11 11 11 11 10 9 9 8 7 7 8 8 8 8 8 8 8 8 7 7 9 10 10 9 9 9 8 7 7 6 6 6 8 9 9 9 9 9 10 11 10 8
12 10 12 12 13 13 10 9 9 9 8 8 9 10 10 10 9 7 8 7 8 7 7 7 8 8 8 8 8 8 7 7 8 9 10 10 9 8 7 7 7 7 6 6 6 6 9 8 7 6 8 9 9 9
10 11 12 12 12 10 9 9 9 9 9 10 9 10 11 11 10 8 7 6 6 6 7 7 7 6 7 7 7 7 8 7 8 8 9 8 7 7 7 7 7 6 6 6 6 6 6 7 7 8 8 9 10 11
11 12 12 13 12 10 9 9 10 10 10 10 11 10 10 10 12 9 7 6 7 7 8 7 7 6 6 6 6 7 8 7 7 7 8 8 8 7 7 6 6 6 6 5 5 6 7 8 8 8 9 9 9 10
11 11 11 11 12 11 10 10 11 12 11 12 11 11 10 10 12 9 7 6 5 6 6 5 5 5 5 6 6 6 7 7 9 11 10 11 11 10 7 7 7 6 6 5 6 6 7 9 9 10 10 10 10 10